Youngstown, OH

6:32 AM EST on November 23, 2017 (GMT -0500)
Youngstown-Warren Regional

Weather History for KYNG - May, 2013

Change the Weather History Date:

Thursday, May 23, 2013

  Actual Average Record
Temperature  
Mean Temperature 59 °F 60 °F  
Max Temperature 75 °F 71 °F 95 °F (1941)
Min Temperature 43 °F 49 °F 30 °F (1967)
Degree Days  
Heating Degree Days 6 7  
Month to date heating degree days 112 208  
Since 1 July heating degree days 6022 6235  
Cooling Degree Days 0 1  
Month to date cooling degree days 43 16  
Year to date cooling degree days 50 25  
Growing Degree Days 10 (Base 50)    
Moisture  
Dew Point 57 °F    
Average Humidity 75    
Maximum Humidity 93    
Minimum Humidity 57    
Precipitation  
Precipitation 0.34 in 0.13 in 1.20 in (1982)
Month to date precipitation 0.99 2.75  
Year to date precipitation 11.29 13.75  
Snow  
Snow 0.00 in 0.00 in - ()
Month to date snowfall T 0.0  
Since 1 July snowfall 80.9 62.7  
Snow Depth 0.00 in    
Sea Level Pressure  
Sea Level Pressure 29.81 in    
Wind  
Wind Speed 11 mph (West)    
Max Wind Speed 24 mph    
Max Gust Speed 29 mph    
Visibility 8 miles    
Events Rain , Thunderstorm    
T = Trace of Precipitation, MM = Missing Value Source: NWS Daily Summary

Daily Weather History Graph

Daily Weather History Graph

Search for Another Location

Airport or City:

Trip Planner

Search our weather history database for the weather conditions in past years. The results will help you decide how hot, cold, wet, or windy it might be!

Date:

Astronomy

May. 23, 2013 Rise Set
Actual Time 5:57 AM EDT 8:42 PM EDT
Civil Twilight 5:24 AM EDT 9:14 PM EDT
Nautical Twilight 4:44 AM EDT 9:55 PM EDT
Astronomical Twilight 3:58 AM EDT 10:41 PM EDT
Moon 7:12 PM EDT 4:42 AM EDT
Length of Visible Light 15h 49m
Length of Day
14h 45m
Waxing Gibbous, 97% of the Moon is Illuminated
May 23
Waxing Gibbous
May 25
Full
May 31
Last Quarter
Jun 8
New
Jun 16
First Quarter

Hourly Weather History & Observations

Time (EDT) Temp. Windchill Dew Point Humidity Pressure Visibility Wind Dir Wind Speed Gust Speed Precip Events Conditions
12:51 AM 69.1 °F - 59.0 °F 70% 29.76 in 10.0 mi SSW 6.9 mph - 0.00 in   Overcast
1:51 AM 64.9 °F - 62.1 °F 90% 29.76 in 10.0 mi SSW 8.1 mph - 0.03 in Rain Light Rain
2:51 AM 66.0 °F - 63.0 °F 90% 29.75 in 10.0 mi South 8.1 mph - 0.00 in   Scattered Clouds
3:51 AM 64.9 °F - 63.0 °F 93% 29.75 in 10.0 mi South 8.1 mph - N/A   Mostly Cloudy
3:56 AM 64.4 °F - 62.6 °F 94% 29.78 in 10.0 mi South 10.4 mph - N/A   Mostly Cloudy
4:11 AM 64.4 °F - 62.6 °F 94% 29.78 in 10.0 mi South 5.8 mph - N/A   Overcast
4:51 AM 64.9 °F - 63.0 °F 93% 29.76 in 10.0 mi SSW 5.8 mph - N/A   Overcast
5:51 AM 64.0 °F - 62.1 °F 93% 29.77 in 10.0 mi SSW 5.8 mph - N/A   Overcast
6:51 AM 64.0 °F - 61.0 °F 90% 29.78 in 8.0 mi SW 8.1 mph - N/A   Overcast
7:16 AM 64.4 °F - 62.6 °F 94% 29.81 in 7.0 mi SSW 6.9 mph - N/A   Overcast
7:51 AM 66.0 °F - 62.1 °F 87% 29.79 in 9.0 mi SW 9.2 mph - N/A   Mostly Cloudy
8:20 AM 66.2 °F - 62.6 °F 88% 29.82 in 10.0 mi SW 8.1 mph - N/A   Overcast
8:51 AM 66.9 °F - 61.0 °F 81% 29.80 in 10.0 mi SSW 10.4 mph - N/A   Mostly Cloudy
9:22 AM 68.0 °F - 60.8 °F 78% 29.82 in 10.0 mi SW 9.2 mph - N/A   Mostly Cloudy
9:51 AM 70.0 °F - 61.0 °F 73% 29.80 in 10.0 mi SW 9.2 mph - N/A   Mostly Cloudy
10:51 AM 70.0 °F - 59.0 °F 68% 29.80 in 10.0 mi SW 12.7 mph - N/A   Overcast
11:51 AM 71.1 °F - 57.9 °F 63% 29.80 in 10.0 mi SSW 13.8 mph 20.7 mph 0.00 in   Overcast
12:51 PM 73.9 °F - 57.0 °F 55% 29.78 in 10.0 mi SW 11.5 mph - N/A   Mostly Cloudy
1:51 PM 68.0 °F - 59.0 °F 73% 29.78 in 10.0 mi SW 9.2 mph - 0.00 in Rain Light Rain
2:51 PM 66.9 °F - 59.0 °F 76% 29.76 in 10.0 mi SW 8.1 mph - 0.08 in   Mostly Cloudy
3:36 PM 69.8 °F - 60.8 °F 73% 29.76 in 10.0 mi SSW 10.4 mph - 0.00 in Thunderstorm Thunderstorm
3:51 PM 62.1 °F - 57.0 °F 84% 29.78 in 10.0 mi NW 17.3 mph 27.6 mph 0.00 in Thunderstorm Thunderstorm
3:58 PM 60.8 °F - 57.2 °F 88% 29.79 in 1.5 mi NW 17.3 mph - 0.00 in Rain , Thunderstorm Thunderstorms and Rain
4:08 PM 60.8 °F - 59.0 °F 94% 29.78 in 10.0 mi NNW 9.2 mph 18.4 mph 0.07 in Rain , Thunderstorm Light Thunderstorms and Rain
4:24 PM 64.4 °F - 62.6 °F 94% 29.79 in 10.0 mi NNW 10.4 mph - 0.07 in   Mostly Cloudy
4:51 PM 62.1 °F - 59.0 °F 90% 29.79 in 3.0 mi NNW 4.6 mph - 0.08 in Rain Rain
5:51 PM 63.0 °F - 60.1 °F 90% 29.79 in 7.0 mi NNW 12.7 mph - 0.09 in   Overcast
6:07 PM 60.8 °F - 57.2 °F 88% 29.81 in 1.5 mi NNW 13.8 mph 23.0 mph 0.03 in Rain Light Rain
6:39 PM 59.0 °F - 55.4 °F 88% 29.82 in 3.0 mi NW 13.8 mph - 0.05 in Rain Light Rain
6:51 PM 57.0 °F - 55.0 °F 93% 29.82 in 2.0 mi NW 13.8 mph 20.7 mph 0.05 in Rain Light Rain
7:42 PM 51.8 °F - 50.0 °F 94% 29.86 in 5.0 mi NNW 17.3 mph - 0.00 in   Overcast
7:51 PM 50.0 °F - 48.9 °F 96% 29.87 in 4.0 mi NW 16.1 mph - 0.00 in   Overcast
8:10 PM 48.2 °F - 46.4 °F 93% 29.88 in 1.5 mi NW 17.3 mph 24.2 mph 0.00 in Rain Light Rain
8:51 PM 48.0 °F - 46.0 °F 93% 29.89 in 1.5 mi NW 13.8 mph 24.2 mph 0.00 in Rain Light Rain
9:51 PM 46.9 °F - 45.0 °F 93% 29.93 in 1.5 mi NW 17.3 mph 25.3 mph 0.00 in Rain Light Rain
10:32 PM 46.4 °F 40.4 °F 42.8 °F 87% 29.95 in 6.0 mi NNW 13.8 mph 21.9 mph 0.00 in   Overcast
10:51 PM 45.0 °F 38.9 °F 43.0 °F 93% 29.96 in 10.0 mi NNW 12.7 mph 25.3 mph 0.00 in   Overcast
11:51 PM 44.1 °F 36.5 °F 42.1 °F 93% 29.96 in 8.0 mi NNW 17.3 mph 23.0 mph 0.00 in Rain Light Rain